| time (UTC) | temp F | wind direction | speed knots | gust knots | rain 1hr in | rain 24hr in | rain mn in | humidity % | barometer mb |
| 20260504120141 | 0 | 0.0 | 0.0 | 0.00 | 0.00 | 0.00 | |||
| 20260504110516 | 0 | 0.0 | 0.0 | 0.00 | 0.00 | 0.00 | |||
| 20260504100521 | 0 | 0.0 | 0.0 | 0.00 | 0.00 | 0.00 | |||
| 20260504081016 | 48 | 225 | 9.6 | 13.9 | 0.00 | 0.00 | 0.00 | 55 | 1014.1 |
| 20260504050015 | 50 | 248 | 13.0 | 15.6 | 0.00 | 0.00 | 0.00 | 51 | 1014.3 |
| 20260504045015 | 50 | 248 | 13.9 | 18.2 | 0.00 | 0.00 | 0.00 | 50 | 1014.2 |
| 20260504044015 | 50 | 248 | 12.2 | 15.6 | 0.00 | 0.00 | 0.00 | 50 | 1014.2 |
| 20260504043016 | 50 | 248 | 11.3 | 15.6 | 0.00 | 0.00 | 0.00 | 50 | 1014.3 |
| 20260504042016 | 51 | 248 | 12.2 | 16.5 | 0.00 | 0.00 | 0.00 | 49 | 1014.2 |
| 20260504041035 | 50 | 225 | 11.3 | 14.8 | 0.00 | 0.00 | 0.00 | 50 | 1014.1 |
| 20260504040035 | 50 | 248 | 11.3 | 16.5 | 0.00 | 0.00 | 0.00 | 50 | 1014.0 |
| 20260504035017 | 51 | 248 | 12.2 | 15.6 | 0.00 | 0.00 | 0.00 | 49 | 1014.0 |
| 20260504034017 | 51 | 248 | 10.4 | 13.9 | 0.00 | 0.00 | 0.00 | 48 | 1013.9 |
| 20260504033037 | 51 | 248 | 11.3 | 15.6 | 0.00 | 0.00 | 0.00 | 48 | 1013.8 |
| 20260504032017 | 52 | 248 | 13.0 | 17.4 | 0.00 | 0.00 | 0.00 | 47 | 1013.7 |
| 20260504031017 | 52 | 248 | 13.0 | 16.5 | 0.00 | 0.00 | 0.00 | 47 | 1013.7 |
| 20260504030017 | 52 | 248 | 13.0 | 16.5 | 0.00 | 0.00 | 0.00 | 46 | 1013.7 |
| 20260504025037 | 52 | 248 | 13.0 | 14.8 | 0.00 | 0.00 | 0.00 | 45 | 1013.7 |
| 20260504024017 | 53 | 248 | 13.0 | 16.5 | 0.00 | 0.00 | 0.00 | 44 | 1013.8 |
| 20260504023017 | 53 | 248 | 13.9 | 17.4 | 0.00 | 0.00 | 0.00 | 44 | 1013.6 |
| 20260504022017 | 53 | 248 | 13.9 | 16.5 | 0.00 | 0.00 | 0.00 | 45 | 1013.8 |
| 20260504021017 | 53 | 270 | 13.9 | 16.5 | 0.00 | 0.00 | 0.00 | 45 | 1013.8 |
| 20260504020017 | 53 | 270 | 12.2 | 14.8 | 0.00 | 0.00 | 0.00 | 45 | 1013.8 |
| 20260504015017 | 53 | 270 | 13.9 | 16.5 | 0.00 | 0.00 | 0.00 | 44 | 1013.7 |
| 20260504014022 | 53 | 270 | 14.8 | 18.2 | 0.00 | 0.00 | 0.00 | 44 | 1013.6 |
| 20260504013017 | 53 | 270 | 14.8 | 18.2 | 0.00 | 0.00 | 0.00 | 44 | 1013.6 |
| 20260504012017 | 53 | 270 | 13.9 | 16.5 | 0.00 | 0.00 | 0.00 | 44 | 1013.6 |
| 20260504011017 | 53 | 270 | 14.8 | 18.2 | 0.00 | 0.00 | 0.00 | 44 | 1013.4 |
| 20260504010017 | 53 | 270 | 17.4 | 21.7 | 0.00 | 0.00 | 0.00 | 43 | 1013.2 |
| 20260504005017 | 53 | 270 | 16.5 | 21.7 | 0.00 | 0.00 | 0.00 | 44 | 1013.1 |
| 20260504004017 | 54 | 270 | 16.5 | 20.9 | 0.00 | 0.00 | 0.00 | 43 | 1013.1 |
| 20260504003024 | 54 | 270 | 15.6 | 20.0 | 0.00 | 0.00 | 0.00 | 44 | 1013.0 |
| 20260504002042 | 54 | 270 | 14.8 | 17.4 | 0.00 | 0.00 | 0.00 | 43 | 1012.9 |
| 20260504001017 | 54 | 270 | 14.8 | 20.0 | 0.00 | 0.00 | 0.00 | 43 | 1012.7 |
| 20260504000024 | 54 | 270 | 15.6 | 20.0 | 0.00 | 0.00 | 0.00 | 43 | 1012.6 |
| 20260503235017 | 55 | 270 | 17.4 | 23.5 | 0.00 | 0.00 | 0.00 | 42 | 1012.5 |
| 20260503234017 | 55 | 270 | 17.4 | 21.7 | 0.00 | 0.00 | 0.00 | 42 | 1012.5 |
| 20260503233025 | 55 | 270 | 16.5 | 20.9 | 0.00 | 0.00 | 0.00 | 41 | 1012.5 |
| 20260503232017 | 55 | 270 | 19.1 | 25.2 | 0.00 | 0.00 | 0.00 | 41 | 1012.5 |
| 20260503231017 | 55 | 270 | 14.8 | 23.5 | 0.00 | 0.00 | 0.00 | 40 | 1012.5 |
| 20260503230042 | 55 | 293 | 18.2 | 26.9 | 0.00 | 0.00 | 0.00 | 41 | 1012.3 |
| 20260503225017 | 55 | 293 | 20.0 | 28.7 | 0.00 | 0.00 | 0.00 | 40 | 1012.2 |
| 20260503224022 | 55 | 270 | 17.4 | 22.6 | 0.00 | 0.00 | 0.00 | 40 | 1012.3 |
| 20260503223059 | 55 | 270 | 18.2 | 25.2 | 0.00 | 0.00 | 0.00 | 39 | 1012.2 |
| 20260503222017 | 56 | 270 | 17.4 | 24.3 | 0.00 | 0.00 | 0.00 | 40 | 1012.1 |
| 20260503221016 | 55 | 270 | 18.2 | 23.5 | 0.00 | 0.00 | 0.00 | 40 | 1012.2 |
| 20260503220036 | 56 | 293 | 19.1 | 26.9 | 0.00 | 0.00 | 0.00 | 39 | 1012.3 |
| 20260503215042 | 55 | 270 | 20.0 | 29.5 | 0.00 | 0.00 | 0.00 | 39 | 1012.2 |
| 20260503214016 | 55 | 293 | 19.1 | 27.8 | 0.00 | 0.00 | 0.00 | 40 | 1012.2 |
| 20260503213023 | 55 | 270 | 12.2 | 23.5 | 0.00 | 0.00 | 0.00 | 40 | 1012.1 |
| 20260503212017 | 54 | 293 | 17.4 | 22.6 | 0.00 | 0.00 | 0.00 | 40 | 1012.2 |
| 20260503211017 | 54 | 293 | 16.5 | 20.9 | 0.00 | 0.00 | 0.00 | 39 | 1012.2 |
| 20260503210017 | 54 | 270 | 19.1 | 26.1 | 0.00 | 0.00 | 0.00 | 39 | 1012.1 |
| 20260503205017 | 54 | 293 | 19.1 | 27.8 | 0.00 | 0.00 | 0.00 | 39 | 1012.1 |
| 20260503204037 | 54 | 293 | 18.2 | 23.5 | 0.00 | 0.00 | 0.00 | 39 | 1012.2 |
| 20260503203024 | 53 | 293 | 23.5 | 31.3 | 0.00 | 0.00 | 0.00 | 38 | 1012.1 |
| 20260503202016 | 53 | 293 | 20.0 | 27.8 | 0.00 | 0.00 | 0.00 | 38 | 1012.2 |
| 20260503201017 | 54 | 293 | 20.0 | 26.1 | 0.00 | 0.00 | 0.00 | 37 | 1012.3 |
| 20260503200058 | 53 | 293 | 17.4 | 26.1 | 0.00 | 0.00 | 0.00 | 37 | 1012.4 |
| 20260503195016 | 53 | 270 | 20.0 | 27.8 | 0.00 | 0.00 | 0.00 | 38 | 1012.3 |
| 20260503194016 | 53 | 293 | 20.9 | 27.8 | 0.00 | 0.00 | 0.00 | 40 | 1012.5 |
| 20260503193037 | 52 | 293 | 20.0 | 26.9 | 0.00 | 0.00 | 0.00 | 40 | 1012.8 |
| 20260503192017 | 51 | 293 | 26.1 | 33.9 | 0.00 | 0.00 | 0.00 | 40 | 1012.6 |
| 20260503191027 | 51 | 293 | 23.5 | 31.3 | 0.00 | 0.00 | 0.00 | 40 | 1013.1 |
| 20260503190018 | 51 | 293 | 20.9 | 28.7 | 0.00 | 0.00 | 0.00 | 41 | 1012.8 |
| 20260503185016 | 51 | 293 | 23.5 | 33.9 | 0.00 | 0.00 | 0.00 | 42 | 1013.2 |
| 20260503184017 | 51 | 293 | 27.8 | 40.0 | 0.00 | 0.00 | 0.00 | 42 | 1013.2 |
| 20260503183023 | 50 | 270 | 21.7 | 30.4 | 0.00 | 0.00 | 0.00 | 43 | 1013.3 |
| 20260503182016 | 49 | 293 | 21.7 | 29.5 | 0.00 | 0.00 | 0.00 | 42 | 1013.3 |
| 20260503181016 | 50 | 293 | 21.7 | 28.7 | 0.00 | 0.00 | 0.00 | 44 | 1013.3 |
| 20260503180024 | 50 | 293 | 19.1 | 28.7 | 0.00 | 0.00 | 0.00 | 43 | 1013.5 |
| 20260503175017 | 49 | 293 | 16.5 | 26.1 | 0.00 | 0.00 | 0.00 | 43 | 1013.5 |
| 20260503174016 | 49 | 293 | 16.5 | 27.8 | 0.00 | 0.00 | 0.00 | 44 | 1013.7 |
| 20260503173018 | 48 | 293 | 20.0 | 27.8 | 0.00 | 0.00 | 0.00 | 44 | 1013.5 |
| 20260503172016 | 47 | 293 | 25.2 | 34.8 | 0.00 | 0.00 | 0.00 | 44 | 1013.5 |
| 20260503171016 | 48 | 293 | 24.3 | 32.2 | 0.00 | 0.00 | 0.00 | 43 | 1013.4 |